Hourly Weather Roundup
Issued by NWS Central Illinois

Home | Current Version | Previous Version | Text Only | Print | Product List | Glossary On
Versions: 1 2 3 4 5 6 7 8 9 10 11 12 13 14 15 16 17 18 19 20 21 22 23 24 25 26 27 28 29 30 31 32 33 34 35 36 37 38 39 40 41 42 43 44 45 46 47 48 49 50
000
NZUS43 KILX 161510
HWRILX

AREA WEATHER ROUNDUP
NATIONAL WEATHER SERVICE, LINCOLN IL
1000 AM CDT TUE SEP 16 2014


CITY           SKY/WX    TMP DP  RH WIND       PRES   REMARKS
BLOOMINGTON    SUNNY     55  47  74 N7        30.24S
CHAMPAIGN      SUNNY     60  51  72 N3        30.23R
DECATUR        CLOUDY    58  51  78 NE5       30.24R
FLORA          SUNNY     57  50  78 NE8       30.23S
GALESBURG      SUNNY     58  51  77 NE3       30.25S
JACKSONVILLE   MOSUNNY   59  52  76 NE7       30.25S
LACON          SUNNY     52  47  84 CALM      30.24S
LAWRENCEVILLE  CLOUDY    59  54  83 N7        30.21S
LITCHFIELD     CLOUDY    54  52  93 CALM      30.24R FOG
$$


CITY           SKY/WX    TMP DP  RH WIND       PRES   REMARKS
LINCOLN        SUNNY     59  51  75 NE6       30.22F
MACOMB         SUNNY     56  49  78 CALM      30.27S
MATTOON        CLOUDY    57  50  77 N7        30.22S
MT CARMEL AP   CLOUDY    61  54  77 NE6G17    30.20S
OLNEY-NOBLE AP CLOUDY    55  52  88 NE8       30.22S
PARIS          CLOUDY    56  53  91 NE3       30.23S
PEORIA         SUNNY     59  48  67 N3        30.24F
PONTIAC        SUNNY     54  54 100 CALM      30.23S
RANTOUL        SUNNY     59  49  70 N6        30.23S
ROBINSON       CLOUDY    58  56  91 N7        30.22S
SPRINGFIELD    MOSUNNY   58  51  78 N9        30.25S
TAYLORVILLE    CLOUDY    55  50  82 E3        30.24S
$$

...REGIONAL REPORTS...


CITY           SKY/WX    TMP DP  RH WIND       PRES   REMARKS
CHICAGO O`HARE MOSUNNY   58  47  66 CALM      30.22R
KANKAKEE       MOSUNNY   58  51  76 CALM      30.23S
MOLINE         SUNNY     56  45  66 E5        30.25S
MOUNT VERNON   CLOUDY    57  50  77 NE3       30.23S
PITTSFIELD     MOSUNNY   57  50  76 NE3       30.26S
QUINCY         SUNNY     56  49  77 NE6       30.25S
ROCKFORD       SUNNY     55  47  74 CALM      30.25S
$$


CITY           SKY/WX    TMP DP  RH WIND       PRES   REMARKS
BURLINGTON     SUNNY     58  48  69 E5        30.24F
CEDAR RAPIDS   SUNNY     55  47  74 CALM      30.24S
DES MOINES     SUNNY     56  49  77 VRB3      30.24F
KIRKSVILLE     SUNNY     58  47  66 E6        30.26S
OTTUMWA        SUNNY     55  49  80 CALM      30.24S
ST LOUIS       CLOUDY    61  54  77 CALM      30.23S
$$


CITY           SKY/WX    TMP DP  RH WIND       PRES   REMARKS
TERRE HAUTE    CLOUDY    57  52  83 NE3       30.22R
EVANSVILLE     CLOUDY    61  54  77 N9        30.19S
INDIANAPOLIS   PTSUNNY   55  49  80 NE6       30.21S
LAFAYETTE      CLOUDY    56  51  84 N5        30.21S
MADISON        SUNNY     57  43  59 VRB5      30.22S
MILWAUKEE      SUNNY     58  39  49 NW7       30.21S
$$





USA.gov is the U.S. government's official web portal to all federal, state and local government web resources and services.